[[{"header":{"parameterUnit":"m.s-1","parameterCategory":1,"la1":30.2991,"la2":30.254,"lo1":-89.0895,"lo2":-89.0444,"dy":0.0017,"dx":0.0017,"nx":28,"ny":28,"refTime":"2024-08-19T09:00:00:Z","depth":0,"parameterNumber":2,"parameterNumberName":"U-component_of_WINDS"},"data":[0,0,0,0,0,0,0,0,0,0,0,0,0,0,0,0,0,0,0,0,0,0,0,0,0,0,0,0,0,0,0,0,0,0,0,0,0,0,0,0,0,0,0,0,0,0,0,0,0,0,0,0,0,0,0,0,0,0,1.8517,1.8518,0,1.8654,1.8655,1.8657,1.8686,1.8685,1.8684,1.8683,1.883,1.8835,1.884,0,0,0,0,0,0,0,0,0,0,0,0,0,1.829,1.8294,1.8517,1.8519,1.852,1.8654,1.8655,1.8657,1.8686,1.8685,1.8684,1.8683,1.8828,1.8834,1.884,0,0,0,0,0,0,0,0,0,0,0,0,0,1.8404,1.8295,1.8517,1.8551,1.8555,1.8653,1.8656,1.8658,1.8687,1.8685,1.8684,1.8682,1.8826,1.8834,1.8841,1.8917,0,0,1.8863,1.8866,0,0,0,0,0,0,0,0,1.8397,1.8412,1.8544,1.8548,1.8554,1.8651,1.8629,1.8745,1.8687,1.8637,1.8683,1.8681,1.8772,1.8784,1.8813,1.8923,1.893,1.8864,1.8868,1.8871,1.8873,0,0,0,0,0,0,0,1.8389,1.8407,1.8571,1.8546,1.8552,1.8562,1.8577,1.8651,1.8712,1.8641,1.8644,1.8659,1.8775,1.8806,1.8817,1.8932,1.8863,1.887,1.8874,1.8877,1.9118,1.912,0,0,0,0,0,0,1.8374,1.84,1.8567,1.8575,1.847,1.8568,1.8584,1.8622,1.8711,1.8723,1.866,1.866,1.8794,1.8808,1.8822,1.8921,1.8871,1.8878,1.8882,1.9116,1.9118,1.912,0,0,0,0,0,0,1.8369,1.8389,1.8561,1.8488,1.8511,1.8573,1.8615,1.8625,1.8656,1.8725,1.8737,1.8681,1.8794,1.8812,1.8894,1.8926,1.8881,1.8888,1.9113,1.9116,1.9119,1.9116,0,0,0,0,0,0,1.8363,1.8387,1.8414,1.8489,1.8515,1.8628,1.8617,1.8629,1.8668,1.8669,1.8747,1.8759,1.8794,1.8883,1.8901,1.8935,1.8894,1.9111,1.9115,1.9118,1.9113,1.9118,1.9123,0,0,0,0,0,1.8355,1.8408,1.8415,1.8435,1.8549,1.8629,1.8645,1.8682,1.867,1.87,1.8745,1.8757,1.8919,1.8891,1.8912,1.8949,1.9109,1.9114,1.9118,1.9111,1.9117,1.9122,0,0,0,0,0,0,1.8336,1.8418,1.8427,1.8505,1.856,1.8634,1.8672,1.8686,1.8747,1.8745,1.8791,1.8808,1.8889,1.8927,1.8894,1.903,1.9014,1.9023,1.9002,1.9008,1.9013,1.9003,1.89,0,0,0,0,0,1.8341,1.8397,1.8466,1.8529,1.8556,1.8609,1.8645,1.8669,1.8729,1.8753,1.8804,1.8863,1.8928,1.897,1.9033,1.9119,1.9139,1.9155,1.916,1.9163,1.9171,1.9224,1.9234,1.9135,1.9135,1.9135,0,0,1.8352,1.8404,1.8436,1.8527,1.8572,1.8632,1.8628,1.8691,1.8738,1.8763,1.8844,1.8884,1.8954,1.9039,1.9079,1.9073,1.9203,1.9169,1.9171,1.9177,1.923,1.9239,1.9248,1.9138,1.9138,1.9137,0,0,1.8404,1.8446,1.8505,1.8551,1.862,1.8656,1.867,1.8743,1.877,1.8851,1.8873,1.8931,1.904,1.909,1.913,1.9205,1.922,1.9225,1.925,1.9301,1.9309,1.9316,1.9347,1.9357,1.9232,1.9232,1.9232,0,1.841,1.8498,1.8534,1.8597,1.8639,1.8663,1.8726,1.877,1.8856,1.8886,1.8877,1.9019,1.9067,1.9167,1.9185,1.9215,1.9237,1.9217,1.9304,1.9312,1.9319,1.935,1.9361,1.9233,1.9232,1.9232,1.9232,0,1.8504,1.8566,1.8606,1.8688,1.8734,1.8796,1.8846,1.8888,1.8909,1.8947,1.9033,1.9092,1.917,1.9195,1.9216,1.93,1.9295,1.9295,1.928,1.9329,1.9358,1.9369,1.9233,1.9233,1.9233,1.9233,0,0,1.8547,1.865,1.8665,1.8705,1.8784,1.8834,1.89,1.8974,1.9012,1.9072,1.9131,1.9225,1.9227,1.9272,1.93,1.9345,1.9406,1.934,1.9343,1.9354,1.9508,1.9509,1.9521,1.9416,1.9418,1.942,1.9503,0,1.8611,1.8726,1.8763,1.8861,1.8921,1.8948,1.9006,1.9063,1.9101,1.9161,1.9204,1.9271,1.9266,1.9295,1.934,1.9389,1.9438,1.9383,1.9476,1.9478,1.9459,1.9536,1.9537,1.9612,1.9514,1.9516,1.9518,0,1.87,1.8761,1.8865,1.894,1.8967,1.9018,1.9093,1.9147,1.9215,1.924,1.9292,1.9317,1.9391,1.9371,1.9477,1.9439,1.948,1.951,1.9514,1.9526,1.9502,1.9554,1.9637,1.9649,1.9535,1.9534,1.9532,0,1.8726,1.8834,1.8911,1.8944,1.9032,1.9069,1.9108,1.9173,1.9218,1.9284,1.9314,1.9387,1.9429,1.9487,1.9534,1.9514,1.9637,1.962,1.9664,1.9663,1.969,1.9688,1.9784,1.9711,1.9711,1.971,1.971,0,1.8794,1.8858,1.8924,1.8972,1.9046,1.9089,1.9162,1.9203,1.9262,1.9321,1.9349,1.9405,1.946,1.9525,1.9561,1.9646,1.9664,1.969,1.9699,1.9689,1.9686,1.9718,1.9715,1.9713,1.9713,1.9712,1.9712,0,1.8836,1.8882,1.8969,1.9046,1.9068,1.9119,1.9188,1.9238,1.9277,1.9353,1.9373,1.9437,1.9515,1.9566,1.9665,1.969,1.9784,1.9791,1.9761,1.9766,1.9809,1.9805,1.9931,1.9952,1.9861,1.9862,1.9862,0,1.8878,1.8927,1.9011,1.9052,1.9091,1.9156,1.9202,1.9248,1.9295,1.9378,1.9419,1.9498,1.9564,1.9688,1.9746,1.9823,1.9834,1.9873,1.9846,1.9836,1.984,1.9837,1.9845,1.9878,1.9879,1.9879,1.988,0,1.8949,1.8971,1.9034,1.9107,1.916,1.922,1.928,1.9313,1.937,1.9422,1.9502,1.9553,1.9655,1.9736,1.9819,1.9864,1.9884,1.9888,1.9903,1.9894,1.9876,1.9891,1.9776,1.9885,1.9884,1.9884,1.9884,1.9884,1.8995,1.9042,1.9109,1.918,1.923,1.9287,1.9339,1.9386,1.9452,1.9538,1.9561,1.9646,1.9717,1.9831,1.9877,1.9946,1.9942,1.9963,1.9969,1.9974,1.9977,1.9863,1.9961,1.9961,1.9961,1.9961,1.9961,0,1.9071,1.9116,1.9181,1.9265,1.9322,1.9333,1.9401,1.945,1.9522,1.9586,1.9651,1.9745,1.9824,1.9888,1.9971,2.0014,2.0026,2.0035,2.0034,2.0045,1.9973,1.9954,2.0024,2.0024,2.0024,2.0024,2.0024,2.0024,1.9117,1.9199,1.9229,1.9338,1.9384,1.9465,1.9504,1.9558,1.9609,1.9712,1.9777,1.9818,1.9884,1.9972,2.0047,2.0064,2.0095,2.0103,2.0123,2.0056,2.0049,2.0042,2.0024,2.0108,2.0109,2.0189,2.019,2.019]},{"header":{"parameterUnit":"m.s-1","parameterCategory":1,"la1":30.2991,"la2":30.254,"lo1":-89.0895,"lo2":-89.0444,"dy":0.0017,"dx":0.0017,"nx":28,"ny":28,"refTime":"2024-08-19T09:00:00:Z","depth":0,"parameterNumber":3,"parameterNumberName":"V-component_of_WINDS"},"data":[0,0,0,0,0,0,0,0,0,0,0,0,0,0,0,0,0,0,0,0,0,0,0,0,0,0,0,0,0,0,0,0,0,0,0,0,0,0,0,0,0,0,0,0,0,0,0,0,0,0,0,0,0,0,0,0,0,0,-1.7523,-1.7522,0,-1.7466,-1.7466,-1.7465,-1.7571,-1.7574,-1.7578,-1.7581,-1.752,-1.7515,-1.751,0,0,0,0,0,0,0,0,0,0,0,0,0,-1.7719,-1.7715,-1.7523,-1.7522,-1.7521,-1.7466,-1.7466,-1.7465,-1.757,-1.7574,-1.7578,-1.7582,-1.7522,-1.7516,-1.751,0,0,0,0,0,0,0,0,0,0,0,0,0,-1.7645,-1.7714,-1.7523,-1.7567,-1.7571,-1.7467,-1.7466,-1.7465,-1.7569,-1.7574,-1.758,-1.7584,-1.7524,-1.7516,-1.7509,-1.7358,0,0,-1.7487,-1.7484,0,0,0,0,0,0,0,0,-1.7649,-1.7638,-1.7561,-1.7564,-1.7568,-1.7531,-1.7513,-1.7429,-1.7568,-1.7569,-1.7581,-1.7587,-1.7519,-1.7513,-1.749,-1.7356,-1.7353,-1.7486,-1.7482,-1.7478,-1.7476,0,0,0,0,0,0,0,-1.7654,-1.7641,-1.75,-1.756,-1.7564,-1.7589,-1.7585,-1.7497,-1.7515,-1.757,-1.7577,-1.7569,-1.7522,-1.7497,-1.749,-1.7352,-1.7486,-1.748,-1.7475,-1.7472,-1.7092,-1.7087,0,0,0,0,0,0,-1.7654,-1.7645,-1.7502,-1.7499,-1.7622,-1.7581,-1.7576,-1.7537,-1.7517,-1.7519,-1.7565,-1.7574,-1.7507,-1.7498,-1.7488,-1.731,-1.7479,-1.7472,-1.7467,-1.7098,-1.7091,-1.7085,0,0,0,0,0,0,-1.7658,-1.7641,-1.7504,-1.7574,-1.7558,-1.7572,-1.7528,-1.7533,-1.7509,-1.7513,-1.7517,-1.7536,-1.7511,-1.7498,-1.739,-1.7309,-1.7468,-1.7462,-1.7104,-1.7096,-1.7088,-1.6953,0,0,0,0,0,0,-1.7663,-1.7641,-1.7584,-1.7572,-1.7554,-1.7407,-1.7523,-1.7528,-1.7496,-1.7508,-1.7487,-1.7489,-1.7514,-1.7401,-1.7383,-1.7302,-1.7456,-1.7112,-1.7101,-1.709,-1.6965,-1.6941,-1.6921,0,0,0,0,0,-1.767,-1.7548,-1.7581,-1.7563,-1.7483,-1.7403,-1.7393,-1.7425,-1.7489,-1.7432,-1.7435,-1.7489,-1.7322,-1.7389,-1.737,-1.7285,-1.7117,-1.7104,-1.7091,-1.6975,-1.6946,-1.6921,0,0,0,0,0,0,-1.7549,-1.7547,-1.7583,-1.7454,-1.7428,-1.7421,-1.7349,-1.7393,-1.7348,-1.736,-1.7402,-1.7397,-1.728,-1.7273,-1.7347,-1.7139,-1.723,-1.7213,-1.7148,-1.712,-1.7099,-1.7102,-1.745,0,0,0,0,0,-1.7507,-1.7443,-1.7444,-1.733,-1.7315,-1.7334,-1.73,-1.7328,-1.7302,-1.7291,-1.7286,-1.7259,-1.72,-1.716,-1.7107,-1.6965,-1.6962,-1.6898,-1.6876,-1.6858,-1.6842,-1.6767,-1.6738,-1.7043,-1.7043,-1.7043,0,0,-1.742,-1.7411,-1.7367,-1.7305,-1.7288,-1.722,-1.7324,-1.7247,-1.7196,-1.7279,-1.7177,-1.7173,-1.7145,-1.7019,-1.6964,-1.7009,-1.6758,-1.6842,-1.6827,-1.6821,-1.6751,-1.6722,-1.6696,-1.7034,-1.7035,-1.7037,0,0,-1.7226,-1.7213,-1.7116,-1.7098,-1.7072,-1.7086,-1.7063,-1.7049,-1.705,-1.6949,-1.701,-1.695,-1.6848,-1.6826,-1.6801,-1.6601,-1.6649,-1.6583,-1.6466,-1.6393,-1.6369,-1.6348,-1.6276,-1.6249,-1.6567,-1.6567,-1.6567,0,-1.712,-1.7021,-1.7061,-1.698,-1.695,-1.7025,-1.6927,-1.6907,-1.6863,-1.6841,-1.6893,-1.6768,-1.6754,-1.6625,-1.6576,-1.6554,-1.6529,-1.6584,-1.6369,-1.6348,-1.6329,-1.6261,-1.6234,-1.6559,-1.656,-1.656,-1.6561,0,-1.6892,-1.6822,-1.6747,-1.6705,-1.6667,-1.6578,-1.6604,-1.6562,-1.6593,-1.6601,-1.6498,-1.6485,-1.643,-1.6402,-1.6431,-1.6276,-1.6305,-1.6363,-1.6454,-1.6292,-1.6228,-1.6202,-1.6547,-1.655,-1.6553,-1.6554,0,0,-1.6617,-1.66,-1.6572,-1.6554,-1.6532,-1.6478,-1.6393,-1.6341,-1.6303,-1.6272,-1.62,-1.6114,-1.6167,-1.6139,-1.6167,-1.6103,-1.5945,-1.6168,-1.6168,-1.6126,-1.5773,-1.5729,-1.5698,-1.5978,-1.5973,-1.5969,-1.5775,0,-1.6423,-1.6277,-1.6312,-1.6167,-1.6102,-1.6173,-1.6099,-1.6077,-1.6083,-1.6029,-1.6036,-1.5974,-1.6049,-1.6033,-1.5973,-1.5976,-1.5874,-1.5991,-1.5911,-1.5907,-1.5913,-1.5665,-1.5617,-1.5434,-1.5751,-1.5746,-1.5743,0,-1.6178,-1.6138,-1.5987,-1.5976,-1.5951,-1.5883,-1.5839,-1.5787,-1.5764,-1.5773,-1.5742,-1.5784,-1.5699,-1.5794,-1.5678,-1.5757,-1.5726,-1.5724,-1.5717,-1.5709,-1.5814,-1.5648,-1.5377,-1.5349,-1.5705,-1.5708,-1.5711,0,-1.5991,-1.59,-1.5798,-1.5781,-1.5766,-1.5717,-1.5709,-1.5691,-1.5658,-1.5619,-1.5598,-1.555,-1.5522,-1.5484,-1.5511,-1.5578,-1.539,-1.5487,-1.5394,-1.5393,-1.5349,-1.5351,-1.5067,-1.5333,-1.5333,-1.5334,-1.5334,0,-1.577,-1.5674,-1.5714,-1.5651,-1.5546,-1.5587,-1.5482,-1.5482,-1.5466,-1.5404,-1.5463,-1.5404,-1.5444,-1.5388,-1.5409,-1.5309,-1.5297,-1.5301,-1.5307,-1.5295,-1.5294,-1.5273,-1.5286,-1.5326,-1.5328,-1.5329,-1.5331,0,-1.5542,-1.5565,-1.5458,-1.5454,-1.5451,-1.5374,-1.537,-1.5312,-1.5324,-1.5244,-1.5228,-1.5246,-1.5183,-1.5207,-1.514,-1.5154,-1.5027,-1.5051,-1.5034,-1.5039,-1.4945,-1.4953,-1.4637,-1.4597,-1.4889,-1.4886,-1.4884,0,-1.5398,-1.5327,-1.5316,-1.5279,-1.5267,-1.5207,-1.5174,-1.5212,-1.5175,-1.5145,-1.509,-1.5033,-1.4988,-1.4884,-1.4891,-1.484,-1.4862,-1.4755,-1.4855,-1.4844,-1.4859,-1.4862,-1.4855,-1.4734,-1.4731,-1.4728,-1.4726,0,-1.5141,-1.5157,-1.5107,-1.5061,-1.5021,-1.4987,-1.4958,-1.4924,-1.4961,-1.4917,-1.4854,-1.482,-1.4753,-1.4694,-1.465,-1.4641,-1.4688,-1.4695,-1.4671,-1.4655,-1.4648,-1.465,-1.4978,-1.4701,-1.4704,-1.4705,-1.4707,-1.4708,-1.495,-1.489,-1.4873,-1.4816,-1.4799,-1.4771,-1.4716,-1.4722,-1.467,-1.4619,-1.4645,-1.4572,-1.4552,-1.4497,-1.4482,-1.4425,-1.4467,-1.4432,-1.4422,-1.4412,-1.44,-1.466,-1.4417,-1.4418,-1.4419,-1.4419,-1.442,0,-1.4694,-1.4688,-1.4635,-1.4594,-1.4549,-1.4601,-1.4572,-1.453,-1.4465,-1.4444,-1.44,-1.4328,-1.4273,-1.4276,-1.4225,-1.4179,-1.4199,-1.4164,-1.4166,-1.4164,-1.4366,-1.4391,-1.4148,-1.4148,-1.4148,-1.4148,-1.4148,-1.4148,-1.4556,-1.4457,-1.447,-1.4364,-1.4358,-1.4287,-1.4266,-1.4241,-1.4224,-1.4141,-1.4096,-1.4099,-1.4087,-1.4036,-1.3988,-1.3991,-1.3968,-1.3924,-1.3934,-1.4122,-1.4149,-1.4175,-1.4199,-1.3919,-1.3919,-1.3737,-1.3735,-1.3734]}]]